29-06-2022, 00:00:00,    157,    0.3,   12.8,   0.00,   0.00, 1009.8,   68.6, -999.0
29-06-2022, 00:00:11,    158,    0.0,   12.7,   0.00,   0.00, 1009.8,   68.6, -999.0
29-06-2022, 00:00:20,    157,    0.0,   12.8,   0.00,   0.00, 1009.8,   68.6, -999.0
29-06-2022, 00:00:30,    157,    0.0,   12.8,   0.00,   0.00, 1009.7,   68.5, -999.0
29-06-2022, 00:00:40,    157,    0.0,   12.8,   0.00,   0.00, 1009.8,   68.8, -999.0
29-06-2022, 00:00:50,    157,    0.0,   12.9,   0.00,   0.00, 1009.8,   68.9, -999.0
29-06-2022, 00:01:00,    158,    0.4,   12.9,   0.00,   0.00, 1009.8,   68.9, -999.0
29-06-2022, 00:01:10,    157,    0.7,   13.0,   0.00,   0.00, 1009.9,   68.9, -999.0
29-06-2022, 00:01:20,    157,    0.1,   12.9,   0.00,   0.00, 1009.8,   68.6, -999.0
29-06-2022, 00:01:30,    157,    0.0,   12.8,   0.00,   0.00, 1009.7,   68.6, -999.0
29-06-2022, 00:01:40,    157,    0.3,   12.9,   0.00,   0.00, 1009.8,   68.6, -999.0
29-06-2022, 00:01:50,    156,    0.9,   13.0,   0.00,   0.00, 1009.8,   68.8, -999.0
29-06-2022, 00:02:00,    156,    0.2,   12.9,   0.00,   0.00, 1009.8,   68.7, -999.0
29-06-2022, 00:02:10,    156,    0.1,   12.8,   0.00,   0.00, 1009.8,   68.6, -999.0
29-06-2022, 00:02:20,    156,    0.0,   12.8,   0.00,   0.00, 1009.8,   68.4, -999.0
29-06-2022, 00:02:30,    156,    0.0,   12.8,   0.00,   0.00, 1009.7,   68.4, -999.0
29-06-2022, 00:02:40,    157,    0.4,   12.9,   0.00,   0.00, 1009.8,   68.8, -999.0
29-06-2022, 00:02:50,    130,    2.9,   13.0,   0.00,   0.00, 1009.9,   68.9, -999.0
29-06-2022, 00:02:59,    130,    1.5,   12.9,   0.00,   0.00, 1009.9,   68.9, -999.0
29-06-2022, 00:03:09,    130,    0.4,   12.9,   0.00,   0.00, 1009.8,   68.7, -999.0
29-06-2022, 00:03:20,    130,    0.7,   12.8,   0.00,   0.00, 1009.8,   68.8, -999.0
29-06-2022, 00:03:29,    130,    1.9,   12.9,   0.00,   0.00, 1009.9,   68.9, -999.0
29-06-2022, 00:03:39,    127,    1.7,   12.9,   0.00,   0.00, 1009.8,   69.0, -999.0
29-06-2022, 00:03:50,    126,    2.1,   12.9,   0.00,   0.00, 1009.8,   68.9, -999.0
29-06-2022, 00:03:59,    127,    1.4,   12.9,   0.00,   0.00, 1009.9,   69.0, -999.0
29-06-2022, 00:04:09,    127,    0.9,   12.9,   0.00,   0.00, 1009.8,   69.0, -999.0
29-06-2022, 00:04:19,    127,    0.0,   12.8,   0.00,   0.00, 1009.8,   68.6, -999.0
29-06-2022, 00:04:29,    141,    0.0,   12.8,   0.00,   0.00, 1009.8,   68.7, -999.0
29-06-2022, 00:04:39,    141,    0.3,   12.8,   0.00,   0.00, 1009.8,   69.1, -999.0
29-06-2022, 00:04:49,    140,    0.7,   12.9,   0.00,   0.00, 1009.8,   69.0, -999.0
29-06-2022, 00:04:59,    140,    0.7,   12.9,   0.00,   0.00, 1009.8,   69.2, -999.0
29-06-2022, 00:05:09,    140,    0.2,   12.9,   0.00,   0.00, 1009.8,   69.0, -999.0
29-06-2022, 00:05:19,    137,    0.4,   12.8,   0.00,   0.00, 1009.8,   68.9, -999.0
29-06-2022, 00:05:29,    136,    1.0,   12.9,   0.00,   0.00, 1009.9,   69.1, -999.0
29-06-2022, 00:05:39,    174,    1.2,   12.8,   0.00,   0.00, 1009.9,   69.4, -999.0
29-06-2022, 00:05:49,    179,    1.3,   12.9,   0.00,   0.00, 1009.9,   69.5, -999.0
29-06-2022, 00:05:59,    178,    0.4,   12.9,   0.00,   0.00, 1009.8,   68.8, -999.0
29-06-2022, 00:06:08,    178,    0.2,   12.8,   0.00,   0.00, 1009.8,   68.9, -999.0
29-06-2022, 00:06:19,    163,    0.8,   12.8,   0.00,   0.00, 1009.8,   68.7, -999.0
29-06-2022, 00:06:29,    160,    1.6,   12.8,   0.00,   0.00, 1009.9,   69.1, -999.0
29-06-2022, 00:06:38,    131,    1.8,   12.8,   0.00,   0.00, 1009.9,   69.1, -999.0
29-06-2022, 00:06:48,    147,    1.9,   12.9,   0.00,   0.00, 1009.9,   69.1, -999.0
29-06-2022, 00:06:58,    163,    2.3,   12.9,   0.00,   0.00, 1009.9,   69.2, -999.0
29-06-2022, 00:07:08,    171,    1.4,   12.8,   0.00,   0.00, 1009.9,   69.1, -999.0
29-06-2022, 00:07:18,    172,    0.5,   12.8,   0.00,   0.00, 1009.9,   69.2, -999.0
29-06-2022, 00:07:28,    154,    1.5,   12.8,   0.00,   0.00, 1009.9,   69.4, -999.0
29-06-2022, 00:07:38,    153,    1.0,   12.8,   0.00,   0.00, 1009.9,   69.3, -999.0
29-06-2022, 00:07:48,    153,    0.6,   12.8,   0.00,   0.00, 1009.9,   69.2, -999.0
29-06-2022, 00:07:58,    153,    1.0,   12.8,   0.00,   0.00, 1009.9,   69.4, -999.0
29-06-2022, 00:08:08,    154,    0.5,   12.8,   0.00,   0.00, 1009.9,   69.3, -999.0
29-06-2022, 00:08:18,    151,    2.7,   12.8,   0.00,   0.00, 1009.9,   69.5, -999.0
29-06-2022, 00:08:28,    161,    1.8,   12.8,   0.00,   0.00, 1009.9,   69.5, -999.0
29-06-2022, 00:08:38,    161,    1.0,   12.8,   0.00,   0.00, 1009.9,   69.4, -999.0
29-06-2022, 00:08:48,    161,    0.1,   12.8,   0.00,   0.00, 1009.8,   69.4, -999.0
29-06-2022, 00:08:58,    161,    0.4,   12.8,   0.00,   0.00, 1009.8,   69.5, -999.0
29-06-2022, 00:09:08,    160,    0.8,   12.9,   0.00,   0.00, 1009.8,   69.5, -999.0
29-06-2022, 00:09:17,    161,    0.6,   12.9,   0.00,   0.00, 1009.8,   69.6, -999.0
29-06-2022, 00:09:28,    161,    0.4,   12.8,   0.00,   0.00, 1009.9,   69.5, -999.0
29-06-2022, 00:09:37,    155,    1.4,   12.8,   0.00,   0.00, 1009.8,   69.5, -999.0
29-06-2022, 00:09:47,    152,    2.3,   12.9,   0.00,   0.00, 1009.8,   69.5, -999.0
29-06-2022, 00:09:58,    131,    2.9,   12.9,   0.00,   0.00, 1009.9,   69.4, -999.0
29-06-2022, 00:10:07,    156,    2.3,   12.8,   0.00,   0.00, 1009.9,   69.5, -999.0
29-06-2022, 00:10:17,    156,    0.6,   12.8,   0.00,   0.00, 1009.8,   69.3, -999.0
29-06-2022, 00:10:27,    156,    0.3,   12.8,   0.00,   0.00, 1009.8,   69.4, -999.0
29-06-2022, 00:10:37,    156,    1.0,   12.9,   0.00,   0.00, 1009.8,   69.8, -999.0
29-06-2022, 00:10:47,    155,    0.5,   12.8,   0.00,   0.00, 1009.8,   69.4, -999.0
29-06-2022, 00:10:57,    156,    0.0,   12.7,   0.00,   0.00, 1009.7,   69.1, -999.0
29-06-2022, 00:11:07,    159,    1.7,   12.9,   0.00,   0.00, 1009.8,   69.6, -999.0
29-06-2022, 00:11:17,    179,    1.1,   12.9,   0.00,   0.00, 1009.8,   69.6, -999.0
29-06-2022, 00:11:27,    179,    0.2,   12.8,   0.00,   0.00, 1009.8,   69.3, -999.0
29-06-2022, 00:11:37,    174,    1.5,   12.8,   0.00,   0.00, 1009.8,   69.4, -999.0
29-06-2022, 00:11:47,    174,    1.4,   12.8,   0.00,   0.00, 1009.8,   69.4, -999.0
29-06-2022, 00:11:57,    173,    0.7,   12.9,   0.00,   0.00, 1009.8,   69.5, -999.0
29-06-2022, 00:12:07,    174,    0.7,   12.8,   0.00,   0.00, 1009.8,   69.7, -999.0
29-06-2022, 00:12:16,    153,    1.5,   12.9,   0.00,   0.00, 1009.8,   69.6, -999.0
29-06-2022, 00:12:27,    143,    2.3,   12.9,   0.00,   0.00, 1009.8,   69.8, -999.0
29-06-2022, 00:12:37,    147,    0.9,   12.9,   0.00,   0.00, 1009.8,   69.5, -999.0
29-06-2022, 00:12:46,    140,    1.6,   12.9,   0.00,   0.00, 1009.8,   69.6, -999.0
29-06-2022, 00:12:56,    167,    1.3,   12.9,   0.00,   0.00, 1009.8,   69.6, -999.0
29-06-2022, 00:13:07,    149,    1.2,   12.9,   0.00,   0.00, 1009.8,   69.4, -999.0
29-06-2022, 00:13:16,    152,    2.3,   12.8,   0.00,   0.00, 1009.8,   69.5, -999.0
29-06-2022, 00:13:26,    141,    1.3,   12.9,   0.00,   0.00, 1009.8,   69.6, -999.0
29-06-2022, 00:13:36,    142,    2.3,   12.6,   0.00,   0.00, 1009.8,   69.6, -999.0
29-06-2022, 00:13:46,    179,    1.5,   12.8,   0.00,   0.00, 1009.8,   69.6, -999.0
29-06-2022, 00:13:56,    178,    0.7,   12.8,   0.00,   0.00, 1009.8,   69.7, -999.0
29-06-2022, 00:14:06,    179,    0.1,   12.8,   0.00,   0.00, 1009.7,   69.5, -999.0
29-06-2022, 00:14:16,    175,    0.8,   12.8,   0.00,   0.00, 1009.7,   69.7, -999.0
29-06-2022, 00:14:26,    116,    1.7,   12.9,   0.00,   0.00, 1009.8,   69.8, -999.0
29-06-2022, 00:14:36,    120,    1.1,   12.9,   0.00,   0.00, 1009.8,   69.9, -999.0
29-06-2022, 00:14:46,    126,    1.0,   12.9,   0.00,   0.00, 1009.8,   70.0, -999.0
29-06-2022, 00:14:56,    126,    0.3,   12.9,   0.00,   0.00, 1009.7,   69.8, -999.0
29-06-2022, 00:15:06,    135,    1.5,   13.0,   0.00,   0.00, 1009.8,   69.9, -999.0
29-06-2022, 00:15:16,    146,    1.2,   12.9,   0.00,   0.00, 1009.8,   69.8, -999.0
29-06-2022, 00:15:25,    149,    2.1,   12.9,   0.00,   0.00, 1009.7,   69.6, -999.0
29-06-2022, 00:15:36,    163,    3.2,   12.7,   0.00,   0.00, 1009.8,   69.7, -999.0
29-06-2022, 00:15:46,    166,    2.5,   12.9,   0.00,   0.00, 1009.8,   69.4, -999.0
29-06-2022, 00:15:55,    145,    1.0,   12.8,   0.00,   0.00, 1009.8,   69.5, -999.0
29-06-2022, 00:16:06,    152,    2.6,   12.8,   0.00,   0.00, 1009.8,   69.6, -999.0
29-06-2022, 00:16:15,    144,    1.6,   12.8,   0.00,   0.00, 1009.8,   69.6, -999.0
29-06-2022, 00:16:25,    143,    0.4,   12.8,   0.00,   0.00, 1009.7,   69.5, -999.0
29-06-2022, 00:16:35,    144,    0.1,   12.8,   0.00,   0.00, 1009.7,   69.7, -999.0
29-06-2022, 00:16:45,    144,    0.0,   12.8,   0.00,   0.00, 1009.6,   69.6, -999.0
29-06-2022, 00:16:55,    144,    0.0,   12.8,   0.00,   0.00, 1009.6,   69.6, -999.0
29-06-2022, 00:17:05,    128,    1.8,   12.8,   0.00,   0.00, 1009.7,   69.8, -999.0
29-06-2022, 00:17:15,    139,    3.1,   12.9,   0.00,   0.00, 1009.8,   69.9, -999.0
29-06-2022, 00:17:25,    138,    2.9,   12.8,   0.00,   0.00, 1009.8,   69.8, -999.0
29-06-2022, 00:17:35,    138,    1.8,   12.8,   0.00,   0.00, 1009.8,   70.0, -999.0
29-06-2022, 00:17:45,    165,    2.2,   12.8,   0.00,   0.00, 1009.8,   69.8, -999.0
29-06-2022, 00:17:55,    165,    0.9,   12.8,   0.00,   0.00, 1009.8,   69.9, -999.0
29-06-2022, 00:18:05,    135,    2.0,   12.8,   0.00,   0.00, 1009.8,   69.9, -999.0
29-06-2022, 00:18:15,    159,    1.0,   12.8,   0.00,   0.00, 1009.8,   69.9, -999.0
29-06-2022, 00:18:25,    154,    0.8,   12.8,   0.00,   0.00, 1009.8,   70.0, -999.0
29-06-2022, 00:18:35,    155,    0.9,   12.8,   0.00,   0.00, 1009.8,   70.0, -999.0
29-06-2022, 00:18:45,    158,    0.7,   12.8,   0.00,   0.00, 1009.8,   70.0, -999.0
29-06-2022, 00:18:54,    158,    0.1,   12.7,   0.00,   0.00, 1009.7,   69.7, -999.0
29-06-2022, 00:19:04,    150,    0.6,   12.7,   0.00,   0.00, 1009.7,   70.1, -999.0
29-06-2022, 00:19:15,    147,    2.2,   12.9,   0.00,   0.00, 1009.7,   70.2, -999.0
29-06-2022, 00:19:24,    147,    1.7,   12.8,   0.00,   0.00, 1009.8,   70.4, -999.0
29-06-2022, 00:19:34,    147,    1.3,   12.7,   0.00,   0.00, 1009.7,   70.1, -999.0
29-06-2022, 00:19:44,    147,    0.1,   12.7,   0.00,   0.00, 1009.7,   69.7, -999.0
29-06-2022, 00:19:54,    147,    0.1,   12.7,   0.00,   0.00, 1009.7,   69.9, -999.0
29-06-2022, 00:20:04,    151,    0.4,   12.7,   0.00,   0.00, 1009.8,   70.3, -999.0
29-06-2022, 00:20:14,    186,    0.8,   12.7,   0.00,   0.00, 1009.8,   70.1, -999.0
29-06-2022, 00:20:24,    186,    0.6,   12.7,   0.00,   0.00, 1009.7,   70.0, -999.0
29-06-2022, 00:20:34,    163,    1.7,   12.8,   0.00,   0.00, 1009.7,   70.4, -999.0
29-06-2022, 00:20:44,    163,    0.3,   12.6,   0.00,   0.00, 1009.7,   70.0, -999.0
29-06-2022, 00:20:54,    165,    0.5,   12.7,   0.00,   0.00, 1009.7,   70.0, -999.0
29-06-2022, 00:21:04,    162,    1.1,   12.7,   0.00,   0.00, 1009.8,   70.4, -999.0
29-06-2022, 00:21:14,    143,    1.6,   12.8,   0.00,   0.00, 1009.8,   70.3, -999.0
29-06-2022, 00:21:24,    140,    1.3,   12.8,   0.00,   0.00, 1009.8,   70.3, -999.0
29-06-2022, 00:21:33,    139,    0.5,   12.8,   0.00,   0.00, 1009.8,   70.5, -999.0
29-06-2022, 00:21:44,    140,    0.0,   12.8,   0.00,   0.00, 1009.6,   70.1, -999.0
29-06-2022, 00:21:54,    139,    0.7,   12.8,   0.00,   0.00, 1009.7,   70.1, -999.0
29-06-2022, 00:22:03,    139,    0.9,   12.8,   0.00,   0.00, 1009.7,   70.3, -999.0
29-06-2022, 00:22:14,    189,    0.7,   12.9,   0.00,   0.00, 1009.8,   70.1, -999.0
29-06-2022, 00:22:24,    189,    0.8,   12.8,   0.00,   0.00, 1009.7,   70.3, -999.0
29-06-2022, 00:22:33,    145,    2.1,   12.8,   0.00,   0.00, 1009.8,   70.4, -999.0
29-06-2022, 00:22:43,    139,    1.9,   12.8,   0.00,   0.00, 1009.8,   70.4, -999.0
29-06-2022, 00:22:54,    140,    1.8,   12.8,   0.00,   0.00, 1009.7,   70.2, -999.0
29-06-2022, 00:23:03,    156,    1.5,   12.7,   0.00,   0.00, 1009.8,   70.4, -999.0
29-06-2022, 00:23:13,    133,    2.0,   12.7,   0.00,   0.00, 1009.8,   70.5, -999.0
29-06-2022, 00:23:23,    153,    2.5,   12.7,   0.00,   0.00, 1009.7,   70.4, -999.0
29-06-2022, 00:23:33,    152,    0.9,   12.7,   0.00,   0.00, 1009.7,   70.4, -999.0
29-06-2022, 00:23:43,    150,    0.7,   12.7,   0.00,   0.00, 1009.6,   70.3, -999.0
29-06-2022, 00:23:53,    131,    1.8,   12.7,   0.00,   0.00, 1009.7,   70.4, -999.0
29-06-2022, 00:24:03,    127,    1.9,   12.8,   0.00,   0.00, 1009.7,   70.4, -999.0
29-06-2022, 00:24:13,    135,    1.2,   12.7,   0.00,   0.00, 1009.7,   70.4, -999.0
29-06-2022, 00:24:23,    100,    2.4,   12.8,   0.00,   0.00, 1009.7,   70.6, -999.0
29-06-2022, 00:24:33,    128,    1.2,   12.8,   0.00,   0.00, 1009.7,   70.5, -999.0
29-06-2022, 00:24:43,    107,    1.4,   12.8,   0.00,   0.00, 1009.7,   70.5, -999.0
29-06-2022, 00:24:53,    146,    1.9,   12.9,   0.00,   0.00, 1009.7,   70.5, -999.0
29-06-2022, 00:25:03,    164,    2.3,   12.7,   0.00,   0.00, 1009.7,   70.4, -999.0
29-06-2022, 00:25:12,    163,    1.5,   12.9,   0.00,   0.00, 1009.7,   70.3, -999.0
29-06-2022, 00:25:23,    143,    3.0,   12.8,   0.00,   0.00, 1009.7,   70.3, -999.0
29-06-2022, 00:25:33,    152,    4.2,   12.8,   0.00,   0.00, 1009.7,   70.4, -999.0
29-06-2022, 00:25:42,    160,    2.9,   12.8,   0.00,   0.00, 1009.7,   70.6, -999.0
29-06-2022, 00:25:52,    166,    2.3,   12.8,   0.00,   0.00, 1009.8,   70.6, -999.0
29-06-2022, 00:26:02,    142,    3.2,   12.7,   0.00,   0.00, 1009.8,   70.6, -999.0
29-06-2022, 00:26:12,    118,    2.6,   12.8,   0.00,   0.00, 1009.8,   70.5, -999.0
29-06-2022, 00:26:22,    146,    2.0,   12.7,   0.00,   0.00, 1009.7,   70.4, -999.0
29-06-2022, 00:26:32,    144,    1.8,   12.8,   0.00,   0.00, 1009.8,   70.9, -999.0
29-06-2022, 00:26:42,    169,    1.7,   12.8,   0.00,   0.00, 1009.7,   70.6, -999.0
29-06-2022, 00:26:52,    166,    0.6,   12.8,   0.00,   0.00, 1009.7,   70.7, -999.0
29-06-2022, 00:27:02,    166,    0.1,   12.7,   0.00,   0.00, 1009.6,   70.4, -999.0
29-06-2022, 00:27:12,    166,    0.8,   12.7,   0.00,   0.00, 1009.7,   70.5, -999.0
29-06-2022, 00:27:22,    166,    1.2,   12.8,   0.00,   0.00, 1009.7,   70.6, -999.0
29-06-2022, 00:27:32,    146,    3.1,   12.7,   0.00,   0.00, 1009.7,   70.6, -999.0
29-06-2022, 00:27:42,    128,    2.2,   12.7,   0.00,   0.00, 1009.7,   70.9, -999.0
29-06-2022, 00:27:52,    116,    2.9,   12.8,   0.00,   0.00, 1009.7,   70.7, -999.0
29-06-2022, 00:28:02,    126,    1.5,   12.7,   0.00,   0.00, 1009.7,   70.7, -999.0
29-06-2022, 00:28:12,    142,    2.0,   12.8,   0.00,   0.00, 1009.6,   70.8, -999.0
29-06-2022, 00:28:21,    160,    1.6,   12.8,   0.00,   0.00, 1009.7,   70.8, -999.0
29-06-2022, 00:28:32,    168,    1.4,   12.8,   0.00,   0.00, 1009.7,   70.9, -999.0
29-06-2022, 00:28:41,    156,    1.2,   12.8,   0.00,   0.00, 1009.7,   70.8, -999.0
29-06-2022, 00:28:51,    154,    1.7,   12.8,   0.00,   0.00, 1009.7,   70.7, -999.0
29-06-2022, 00:29:02,    143,    1.6,   12.8,   0.00,   0.00, 1009.7,   70.6, -999.0
29-06-2022, 00:29:11,    163,    1.3,   12.7,   0.00,   0.00, 1009.7,   70.5, -999.0
29-06-2022, 00:29:21,    113,    2.4,   12.7,   0.00,   0.00, 1009.8,   70.8, -999.0
29-06-2022, 00:29:31,    148,    3.1,   12.8,   0.00,   0.00, 1009.7,   70.9, -999.0
29-06-2022, 00:29:41,    140,    3.8,   12.7,   0.00,   0.00, 1009.7,   70.9, -999.0
29-06-2022, 00:29:51,    141,    3.8,   12.6,   0.00,   0.00, 1009.7,   70.8, -999.0
29-06-2022, 00:30:01,    164,    1.3,   12.7,   0.00,   0.00, 1009.7,   70.9, -999.0
29-06-2022, 00:30:11,    167,    0.4,   12.6,   0.00,   0.00, 1009.7,   71.1, -999.0
29-06-2022, 00:30:21,    166,    0.0,   12.5,   0.00,   0.00, 1009.6,   70.7, -999.0
29-06-2022, 00:30:31,    164,    0.7,   12.6,   0.00,   0.00, 1009.7,   71.0, -999.0
29-06-2022, 00:30:41,    150,    2.9,   12.7,   0.00,   0.00, 1009.7,   71.1, -999.0
29-06-2022, 00:30:51,    147,    2.0,   12.6,   0.00,   0.00, 1009.7,   71.2, -999.0
29-06-2022, 00:31:01,    120,    1.3,   12.7,   0.00,   0.00, 1009.7,   71.1, -999.0
29-06-2022, 00:31:11,    155,    0.9,   12.7,   0.00,   0.00, 1009.7,   71.1, -999.0
29-06-2022, 00:31:21,    155,    1.2,   12.7,   0.00,   0.00, 1009.7,   71.4, -999.0
29-06-2022, 00:31:31,    155,    0.2,   12.7,   0.00,   0.00, 1009.7,   71.2, -999.0
29-06-2022, 00:31:41,    155,    0.6,   12.7,   0.00,   0.00, 1009.7,   71.1, -999.0
29-06-2022, 00:31:50,    155,    0.8,   12.6,   0.00,   0.00, 1009.7,   71.1, -999.0
29-06-2022, 00:32:00,    155,    0.0,   12.6,   0.00,   0.00, 1009.6,   70.9, -999.0
29-06-2022, 00:32:11,    155,    0.2,   12.7,   0.00,   0.00, 1009.6,   71.0, -999.0
29-06-2022, 00:32:20,    155,    0.7,   12.7,   0.00,   0.00, 1009.7,   71.1, -999.0
29-06-2022, 00:32:30,    155,    0.1,   12.7,   0.00,   0.00, 1009.5,   70.9, -999.0
29-06-2022, 00:32:40,    155,    0.0,   12.8,   0.00,   0.00, 1009.5,   70.8, -999.0
29-06-2022, 00:32:50,    163,    1.8,   12.8,   0.00,   0.00, 1009.7,   71.0, -999.0
29-06-2022, 00:33:00,    163,    0.9,   12.8,   0.00,   0.00, 1009.7,   70.9, -999.0
29-06-2022, 00:33:10,    134,    0.9,   12.8,   0.00,   0.00, 1009.7,   70.8, -999.0
29-06-2022, 00:33:20,    134,    0.5,   12.7,   0.00,   0.00, 1009.6,   70.7, -999.0
29-06-2022, 00:33:30,    125,    1.5,   12.8,   0.00,   0.00, 1009.7,   71.0, -999.0
29-06-2022, 00:33:40,    122,    2.4,   12.8,   0.00,   0.00, 1009.7,   71.1, -999.0
29-06-2022, 00:33:50,    143,    3.0,   12.8,   0.00,   0.00, 1009.6,   71.3, -999.0
29-06-2022, 00:34:00,    188,    2.7,   12.7,   0.00,   0.00, 1009.7,   70.9, -999.0
29-06-2022, 00:34:10,    186,    0.8,   12.7,   0.00,   0.00, 1009.7,   71.0, -999.0
29-06-2022, 00:34:20,    158,    0.7,   12.7,   0.00,   0.00, 1009.7,   71.0, -999.0
29-06-2022, 00:34:29,    158,    1.4,   12.7,   0.00,   0.00, 1009.7,   71.3, -999.0
29-06-2022, 00:34:40,    158,    0.1,   12.6,   0.00,   0.00, 1009.6,   71.0, -999.0
29-06-2022, 00:34:50,    158,    0.3,   12.7,   0.00,   0.00, 1009.6,   71.1, -999.0
29-06-2022, 00:34:59,    158,    0.5,   12.7,   0.00,   0.00, 1009.7,   71.3, -999.0
29-06-2022, 00:35:09,    157,    0.4,   12.7,   0.00,   0.00, 1009.7,   71.5, -999.0
29-06-2022, 00:35:20,    157,    0.0,   12.7,   0.00,   0.00, 1009.5,   71.0, -999.0
29-06-2022, 00:35:29,    157,    0.1,   12.6,   0.00,   0.00, 1009.6,   71.1, -999.0
29-06-2022, 00:35:39,    155,    1.4,   12.8,   0.00,   0.00, 1009.7,   71.4, -999.0
29-06-2022, 00:35:49,    163,    1.0,   12.8,   0.00,   0.00, 1009.7,   71.4, -999.0
29-06-2022, 00:35:59,    163,    0.7,   12.7,   0.00,   0.00, 1009.6,   71.3, -999.0
29-06-2022, 00:36:09,    162,    0.0,   12.6,   0.00,   0.00, 1009.6,   71.0, -999.0
29-06-2022, 00:36:19,    162,    0.0,   12.6,   0.00,   0.00, 1009.6,   71.0, -999.0
29-06-2022, 00:36:29,    162,    0.0,   12.6,   0.00,   0.00, 1009.6,   71.0, -999.0
29-06-2022, 00:36:39,    133,    1.7,   12.6,   0.00,   0.00, 1009.7,   71.5, -999.0
29-06-2022, 00:36:49,    134,    1.0,   12.8,   0.00,   0.00, 1009.7,   71.3, -999.0
29-06-2022, 00:36:59,    138,    0.3,   12.6,   0.00,   0.00, 1009.7,   71.2, -999.0
29-06-2022, 00:37:09,    105,    1.8,   12.6,   0.00,   0.00, 1009.7,   71.4, -999.0
29-06-2022, 00:37:19,    136,    1.2,   12.7,   0.00,   0.00, 1009.7,   71.5, -999.0
29-06-2022, 00:37:29,    134,    0.4,   12.7,   0.00,   0.00, 1009.7,   71.4, -999.0
29-06-2022, 00:37:38,    134,    0.2,   12.8,   0.00,   0.00, 1009.7,   71.5, -999.0
29-06-2022, 00:37:49,    134,    0.0,   12.8,   0.00,   0.00, 1009.6,   71.3, -999.0
29-06-2022, 00:37:59,    134,    0.1,   12.8,   0.00,   0.00, 1009.6,   71.4, -999.0
29-06-2022, 00:38:08,    134,    0.4,   12.9,   0.00,   0.00, 1009.7,   71.3, -999.0
29-06-2022, 00:38:19,    135,    1.0,   12.9,   0.00,   0.00, 1009.7,   71.3, -999.0
29-06-2022, 00:38:29,    140,    2.5,   12.8,   0.00,   0.00, 1009.7,   71.3, -999.0
29-06-2022, 00:38:38,    131,    1.7,   12.8,   0.00,   0.00, 1009.7,   71.2, -999.0
29-06-2022, 00:38:48,    131,    1.0,   12.6,   0.00,   0.00, 1009.7,   71.2, -999.0
29-06-2022, 00:38:58,    131,    0.3,   12.7,   0.00,   0.00, 1009.6,   71.1, -999.0
29-06-2022, 00:39:08,    131,    0.0,   12.6,   0.00,   0.00, 1009.6,   70.9, -999.0
29-06-2022, 00:39:18,    131,    0.0,   12.6,   0.00,   0.00, 1009.5,   70.9, -999.0
29-06-2022, 00:39:28,    130,    0.0,   12.6,   0.00,   0.00, 1009.6,   71.2, -999.0
29-06-2022, 00:39:38,    131,    0.7,   12.8,   0.00,   0.00, 1009.7,   71.4, -999.0
29-06-2022, 00:39:48,    134,    0.8,   12.8,   0.00,   0.00, 1009.7,   71.6, -999.0
29-06-2022, 00:39:58,    135,    0.9,   12.7,   0.00,   0.00, 1009.7,   71.6, -999.0
29-06-2022, 00:40:08,    132,    1.8,   12.8,   0.00,   0.00, 1009.6,   71.5, -999.0
29-06-2022, 00:40:18,    131,    0.8,   12.8,   0.00,   0.00, 1009.7,   71.8, -999.0
29-06-2022, 00:40:28,    134,    0.6,   12.7,   0.00,   0.00, 1009.6,   71.6, -999.0
29-06-2022, 00:40:38,    134,    0.2,   12.7,   0.00,   0.00, 1009.7,   71.6, -999.0
29-06-2022, 00:40:48,    134,    0.4,   12.7,   0.00,   0.00, 1009.7,   71.7, -999.0
29-06-2022, 00:40:58,    140,    1.3,   12.8,   0.00,   0.00, 1009.7,   71.5, -999.0
29-06-2022, 00:41:08,    148,    0.7,   12.7,   0.00,   0.00, 1009.7,   71.6, -999.0
29-06-2022, 00:41:17,    148,    0.5,   12.7,   0.00,   0.00, 1009.7,   71.6, -999.0
29-06-2022, 00:41:28,    149,    0.4,   12.7,   0.00,   0.00, 1009.7,   71.6, -999.0
29-06-2022, 00:41:37,    149,    0.0,   12.7,   0.00,   0.00, 1009.6,   71.5, -999.0
29-06-2022, 00:41:47,    158,    1.6,   12.7,   0.00,   0.00, 1009.7,   71.8, -999.0
29-06-2022, 00:41:57,    158,    1.3,   12.7,   0.00,   0.00, 1009.7,   71.7, -999.0
29-06-2022, 00:42:07,    158,    0.4,   12.7,   0.00,   0.00, 1009.6,   71.7, -999.0
29-06-2022, 00:42:17,    158,    0.9,   12.6,   0.00,   0.00, 1009.7,   71.9, -999.0
29-06-2022, 00:42:27,    158,    1.3,   12.7,   0.00,   0.00, 1009.7,   71.8, -999.0
29-06-2022, 00:42:37,    157,    0.2,   12.6,   0.00,   0.00, 1009.6,   71.6, -999.0
29-06-2022, 00:42:47,    158,    0.0,   12.5,   0.00,   0.00, 1009.5,   71.4, -999.0
29-06-2022, 00:42:57,    158,    0.0,   12.6,   0.00,   0.00, 1009.5,   71.4, -999.0
29-06-2022, 00:43:07,    158,    0.2,   12.5,   0.00,   0.00, 1009.6,   71.7, -999.0
29-06-2022, 00:43:17,    158,    0.3,   12.7,   0.00,   0.00, 1009.6,   71.8, -999.0
29-06-2022, 00:43:27,    158,    0.8,   12.7,   0.00,   0.00, 1009.6,   71.9, -999.0
29-06-2022, 00:43:37,    131,    1.0,   12.6,   0.00,   0.00, 1009.6,   72.0, -999.0
29-06-2022, 00:43:47,    166,    1.7,   12.7,   0.00,   0.00, 1009.6,   72.1, -999.0
29-06-2022, 00:43:57,    174,    2.7,   12.7,   0.00,   0.00, 1009.7,   72.2, -999.0
29-06-2022, 00:44:07,    154,    3.0,   12.7,   0.00,   0.00, 1009.6,   72.0, -999.0
29-06-2022, 00:44:16,    155,    2.0,   12.6,   0.00,   0.00, 1009.6,   72.2, -999.0
29-06-2022, 00:44:27,    155,    1.0,   12.7,   0.00,   0.00, 1009.6,   72.0, -999.0
29-06-2022, 00:44:37,    159,    1.1,   12.5,   0.00,   0.00, 1009.6,   72.2, -999.0
29-06-2022, 00:44:46,    160,    0.4,   12.5,   0.00,   0.00, 1009.6,   72.0, -999.0
29-06-2022, 00:44:56,    146,    1.4,   12.5,   0.00,   0.00, 1009.6,   72.3, -999.0
29-06-2022, 00:45:07,    144,    2.8,   12.5,   0.00,   0.00, 1009.6,   72.5, -999.0
29-06-2022, 00:45:16,    171,    1.5,   12.5,   0.00,   0.00, 1009.6,   72.5, -999.0
29-06-2022, 00:45:26,    173,    2.5,   12.5,   0.00,   0.00, 1009.6,   72.4, -999.0
29-06-2022, 00:45:36,    144,    2.9,   12.5,   0.00,   0.00, 1009.6,   72.5, -999.0
29-06-2022, 00:45:46,    140,    3.9,   12.6,   0.00,   0.00, 1009.6,   72.4, -999.0
29-06-2022, 00:45:56,    153,    2.9,   12.5,   0.00,   0.00, 1009.6,   72.4, -999.0
29-06-2022, 00:46:06,    149,    1.4,   12.5,   0.00,   0.00, 1009.6,   72.5, -999.0
29-06-2022, 00:46:16,    146,    1.9,   12.6,   0.00,   0.00, 1009.6,   72.8, -999.0
29-06-2022, 00:46:26,    157,    0.3,   12.5,   0.00,   0.00, 1009.6,   72.6, -999.0
29-06-2022, 00:46:36,    163,    1.8,   12.6,   0.00,   0.00, 1009.6,   72.8, -999.0